This is the latest recevied weather packets stored in our database for station/object KD0OXW. If no packets are shown the sender has not sent any weather packets the latest 10 day(s).
| Time | Temp. | Humidity | Pressure | Rain* | Wind** | Luminosity | Snow |
|---|---|---|---|---|---|---|---|
| 1777911792 | 12.78° C | 50% | 995 hPa | 0 mm | - | - | - |
| 1777911492 | 12.78° C | 51% | 995.1 hPa | 0 mm | - | - | - |
| 1777911192 | 12.78° C | 52% | 994.7 hPa | 0 mm | - | - | - |
| 1777910892 | 12.78° C | 52% | 994.7 hPa | 0 mm | - | - | - |
| 1777910592 | 13.33° C | 53% | 994.7 hPa | 0 mm | - | - | - |
| 1777910292 | 13.33° C | 52% | 994.6 hPa | 0 mm | - | - | - |
| 1777909992 | 13.33° C | 55% | 994.5 hPa | 0 mm | - | - | - |
| 1777909692 | 13.33° C | 55% | 994.3 hPa | 0 mm | - | - | - |
| 1777909392 | 12.78° C | 56% | 994.3 hPa | 0 mm | - | - | - |
| 1777909092 | 12.78° C | 56% | 994.2 hPa | 0 mm | - | - | - |
| 1777908792 | 12.22° C | 57% | 994.2 hPa | 0 mm | - | - | - |
| 1777908492 | 12.22° C | 57% | 994.2 hPa | 0 mm | - | - | - |
| 1777908193 | 12.22° C | 56% | 994.1 hPa | 0 mm | - | - | - |
| 1777907892 | 12.22° C | 57% | 994 hPa | 0 mm | - | - | - |
| 1777907593 | 12.22° C | 56% | 993.9 hPa | 0 mm | - | - | - |
| 1777907292 | 12.22° C | 55% | 993.9 hPa | 0 mm | - | - | - |
| 1777906992 | 12.22° C | 55% | 993.9 hPa | 0 mm | - | - | - |
| 1777906692 | 12.22° C | 55% | 993.7 hPa | 0 mm | - | - | - |
| 1777906393 | 12.78° C | 55% | 993.6 hPa | 0 mm | - | - | - |
| 1777906093 | 12.78° C | 57% | 993.5 hPa | 0 mm | - | - | - |
| 1777905792 | 12.22° C | 57% | 993.7 hPa | 0 mm | - | - | - |
| 1777905492 | 12.22° C | 55% | 993.7 hPa | 0 mm | - | - | - |
| 1777905193 | 12.22° C | 56% | 993.6 hPa | 0 mm | - | - | - |
| 1777904893 | 12.78° C | 56% | 993.5 hPa | 0 mm | - | - | - |
| 1777904593 | 12.78° C | 56% | 993.4 hPa | 0 mm | - | - | - |
* Rain latest hour (hover to see other rain measurements)
** Current wind speed in m/s (hover to see current wind gust speed)